Wind_Speed
8 9 9 9 9 9 9 9 9 8 8 9 8 8 8 8 8 8 8 9 9 9 10 11 11 12 11 11 11 11 12 13 14 16 16 16 16 15 15 15 15 16 18
8 9 9 10 10 10 10 10 9 8 8 8 8 8 8 8 8 8 9 9 9 9 10 11 12 12 11 12 12 12 13 13 15 15 16 17 17 16 16 15 14 17 17
9 9 10 10 10 11 11 10 9 8 7 7 7 7 8 8 8 8 9 9 10 9 10 10 11 11 11 11 12 13 14 13 15 16 16 16 16 17 16 16 16 17 18
9 10 10 11 11 11 11 10 9 7 7 6 6 6 7 7 7 8 8 9 9 10 10 10 11 11 11 12 12 13 14 15 15 16 16 16 17 17 17 17 17 18 19
9 10 11 11 11 11 11 10 9 8 7 6 6 6 6 6 6 7 7 8 9 10 10 10 10 11 11 11 12 13 14 15 15 16 16 17 17 18 18 18 18 17 18
9 10 11 11 11 11 11 10 9 8 7 6 6 6 6 5 5 6 7 7 8 9 10 10 10 11 11 11 12 13 14 14 16 16 16 17 18 19 19 19 19 19 19
10 10 11 11 11 12 11 11 10 9 8 7 6 5 5 4 5 5 6 6 7 8 9 9 10 11 12 12 12 13 14 14 15 16 17 18 19 19 20 20 20 20 20
9 10 10 11 11 11 12 11 10 9 8 7 6 6 5 4 4 5 5 6 7 7 9 9 10 10 12 12 13 13 14 14 15 15 17 18 19 20 20 21 20 19 20
9 10 10 10 11 11 12 12 11 10 9 7 6 6 5 5 4 4 5 6 6 7 8 9 9 10 11 13 12 13 14 14 14 15 16 17 18 19 20 20 21 22 21
8 9 10 10 11 11 11 11 11 10 9 8 7 6 6 5 5 4 4 5 6 7 8 9 9 10 11 12 13 13 13 14 14 15 16 17 18 18 18 19 20 21 22
8 9 9 10 11 11 11 11 11 10 9 9 8 7 6 6 5 5 5 5 6 7 8 9 10 10 11 12 12 13 13 14 14 15 16 17 17 17 17 19 20 20 22
8 8 9 10 11 11 11 11 11 10 9 9 8 8 7 6 6 6 6 6 7 7 8 9 10 11 11 11 12 12 13 13 13 14 16 17 18 17 18 19 21 21 22
8 8 9 10 10 11 11 11 11 10 10 9 9 8 8 7 7 7 7 7 7 8 8 9 10 11 11 12 12 13 14 13 13 14 15 16 17 17 17 18 20 21 22
8 8 9 9 10 10 11 11 11 11 10 10 9 9 8 8 8 8 8 8 8 8 8 9 10 11 12 12 13 13 14 15 15 15 16 16 17 18 17 17 19 21 22
8 8 9 10 10 11 11 11 11 11 10 10 10 10 10 9 9 9 9 9 9 9 10 10 10 10 12 13 14 15 15 15 16 16 16 16 17 18 19 19 20 20 21
9 9 10 10 11 11 12 12 11 11 11 11 11 11 11 11 11 11 11 11 11 11 11 11 11 12 12 13 14 15 16 16 18 18 17 18 18 18 19 20 21 22 22
10 10 11 12 12 12 12 13 13 13 12 12 12 12 12 12 12 13 13 13 13 13 13 13 13 14 14 15 15 16 17 18 18 19 19 20 20 20 21 22 23 24 24
11 11 12 13 13 13 13 14 14 14 14 14 14 14 14 14 14 14 14 14 14 15 15 15 15 16 17 17 17 17 18 19 20 20 21 22 23 23 23 24 24 25 26
12 13 13 14 14 14 15 15 16 16 16 16 16 16 16 16 16 16 16 17 17 17 17 17 18 18 19 19 19 20 20 21 22 22 23 23 25 25 25 26 27 28 28
14 14 15 15 16 16 16 17 18 18 18 18 18 18 18 18 19 18 19 19 20 20 20 20 20 21 21 21 22 22 23 23 24 25 25 26 27 27 28 28 29 30 30
15 16 16 17 18 18 18 19 19 20 20 20 20 20 20 21 21 21 22 22 23 23 23 23 23 23 23 24 24 25 25 26 27 28 28 29 29 30 30 30 31 32 32
17 18 19 19 20 21 21 21 22 22 22 22 22 23 23 23 24 24 24 24 25 25 25 25 25 26 26 26 27 27 27 28 28 29 30 31 32 32 33 33 33 34 34
19 20 21 21 22 23 23 23 23 23 24 24 25 25 26 26 26 26 26 26 26 27 28 28 28 28 29 29 29 29 30 31 31 31 32 32 33 34 35 35 35 36 36
22 22 23 23 24 24 24 24 24 25 26 26 27 27 27 27 27 28 28 29 29 29 30 31 31 32 32 33 33 33 33 33 34 34 35 35 35 35 35 36 36 37 37
24 24 25 25 25 26 26 27 27 27 28 29 29 30 30 30 30 31 31 31 31 32 33 33 34 34 35 36 36 37 37 37 37 37 38 38 38 38 38 37 37 38 38
26 26 27 27 27 28 29 29 30 31 32 32 32 32 32 33 33 34 34 34 34 35 35 35 36 37 37 38 40 41 41 41 41 41 41 42 41 41 40 40 40 39 40
Wind_Direction
352 350 348 344 339 338 333 326 318 309 303 299 289 279 275 270 266 261 255 252 249 245 241 237 237 237 235 229 226 227 224 219 213 214 215 217 218 220 220 214 215 213 211
353 351 350 347 343 341 337 332 324 315 309 302 293 283 275 270 264 260 253 250 249 247 244 240 238 237 235 230 225 223 222 221 217 216 218 219 220 223 219 218 215 212 210
355 353 354 353 349 345 341 335 329 323 317 311 304 292 279 273 266 258 252 248 247 246 245 243 240 238 234 232 227 224 225 226 221 221 222 221 222 222 222 220 218 216 214
355 356 359 357 354 350 347 344 338 331 323 318 313 304 292 280 269 260 254 247 245 245 245 245 240 237 234 230 230 228 227 229 228 225 224 224 223 223 223 224 222 221 219
358 359 1 360 358 356 353 350 344 338 331 325 318 310 302 289 276 264 257 250 246 245 244 245 241 238 235 231 230 233 231 231 232 229 228 226 225 225 227 229 226 225 224
360 1 1 1 360 358 357 355 351 346 341 333 324 317 309 299 282 269 260 253 247 245 245 245 242 237 235 234 235 236 235 234 234 234 233 230 230 228 229 231 231 229 229
2 1 1 1 1 360 0 359 356 353 349 342 336 329 320 307 294 281 271 255 249 245 244 244 242 236 236 238 239 240 241 240 239 239 238 236 233 232 231 233 232 232 230
1 1 2 2 3 3 3 2 0 359 357 353 348 340 331 320 307 287 273 262 257 252 247 247 244 239 238 241 244 244 244 246 247 246 242 241 238 237 236 236 234 233 231
358 360 1 0 1 2 3 3 2 2 2 360 356 350 345 335 321 302 277 273 265 259 252 248 249 247 245 245 247 247 248 249 249 248 244 243 242 243 241 240 237 234 234
351 353 357 358 360 0 360 1 2 4 4 1 358 353 347 341 330 317 297 283 275 268 260 252 251 251 252 252 253 254 255 256 255 251 247 246 245 245 245 243 238 235 235
349 349 352 355 358 358 357 359 1 2 2 1 358 355 350 342 335 325 313 298 286 278 269 262 257 255 255 254 255 258 262 259 258 253 249 248 250 251 249 244 240 238 237
346 348 348 351 355 356 356 356 358 358 358 356 355 354 350 342 335 330 320 308 296 286 277 270 263 260 259 258 259 260 263 260 259 255 252 250 252 254 253 248 243 239 237
343 343 345 347 350 352 353 353 353 352 352 351 349 347 344 341 338 333 325 315 304 294 286 278 268 264 263 264 263 263 262 260 260 259 258 256 254 254 252 251 246 242 239
336 337 338 341 343 345 346 346 346 346 345 344 343 341 338 336 333 331 327 318 307 300 294 287 277 270 268 265 265 266 264 262 265 264 263 260 255 255 253 250 248 245 244
330 331 333 335 336 337 337 336 336 337 337 335 334 333 331 329 327 325 323 318 309 302 297 292 286 281 275 271 267 264 265 266 265 265 264 264 258 255 254 251 250 248 249
325 327 328 330 331 331 333 333 332 330 329 329 328 326 323 321 320 318 317 315 311 306 301 295 289 285 281 275 269 266 268 268 267 267 266 266 263 259 257 255 254 254 254
320 323 327 327 328 327 327 327 327 326 323 321 321 320 318 316 314 313 312 311 309 307 304 297 292 287 285 282 277 272 271 270 269 268 269 268 268 266 262 259 257 256 257
314 318 321 323 324 323 323 324 323 320 318 315 313 313 312 311 311 309 308 307 306 305 302 298 294 291 288 284 281 278 273 272 270 270 270 270 270 268 266 264 261 260 259
307 310 314 317 318 318 318 318 318 318 316 314 311 308 307 307 305 303 302 301 301 301 300 298 295 292 290 286 282 279 277 274 274 273 272 271 271 271 270 267 264 263 262
303 305 307 310 313 313 313 313 313 313 312 311 310 307 305 303 301 300 298 297 297 297 297 296 292 290 288 285 283 280 278 277 276 275 274 274 272 272 272 270 267 265 264
300 302 304 306 309 309 309 309 309 308 308 307 306 304 303 301 300 297 295 294 294 294 293 292 291 289 287 285 283 281 280 278 277 276 275 275 274 274 273 272 269 267 266
300 302 303 305 306 305 305 305 306 306 306 304 303 302 301 299 298 296 294 292 291 291 290 290 290 289 287 285 284 282 281 280 279 277 276 275 274 273 273 272 271 269 267
299 301 302 303 303 303 304 304 304 305 306 305 304 303 301 299 296 294 293 292 292 290 290 289 289 288 287 285 284 283 282 282 281 280 278 277 275 273 272 271 270 268 267
298 300 301 302 302 302 303 303 304 305 305 305 304 304 302 300 297 295 293 292 291 291 289 289 289 288 287 287 286 284 283 282 281 282 280 279 277 275 273 272 271 269 268
296 298 299 300 301 301 301 301 302 303 303 303 303 303 302 301 298 296 295 293 292 291 290 288 288 288 288 287 286 286 285 283 282 282 281 280 278 277 275 273 271 269 268
296 297 298 298 300 301 301 300 301 301 302 302 301 300 299 299 298 297 295 293 291 289 289 289 288 288 288 288 287 286 285 284 283 282 281 280 278 277 275 273 271 270 268
Height
5875 5874 5872 5870 5869 5867 5866 5865 5863 5863 5862 5862 5862 5862 5862 5863 5863 5864 5865 5866 5867 5868 5869 5870 5872 5874 5875 5877 5878 5879 5881 5882 5884 5887 5889 5892 5895 5896 5898 5900 5901 5902 5906
5874 5873 5871 5870 5868 5866 5865 5863 5862 5861 5860 5860 5860 5860 5860 5861 5861 5862 5863 5864 5865 5866 5867 5869 5870 5872 5874 5875 5877 5878 5880 5881 5883 5885 5888 5890 5893 5895 5897 5899 5899 5901 5904
5874 5872 5871 5869 5867 5865 5864 5862 5860 5859 5859 5858 5858 5858 5858 5858 5859 5860 5861 5862 5863 5865 5866 5867 5869 5870 5872 5873 5875 5877 5878 5880 5881 5884 5886 5888 5890 5893 5895 5897 5899 5901 5903
5873 5872 5870 5868 5866 5864 5863 5861 5859 5858 5857 5857 5857 5856 5856 5857 5857 5858 5859 5860 5861 5863 5864 5866 5867 5869 5870 5872 5873 5875 5877 5878 5880 5882 5884 5886 5888 5891 5893 5895 5897 5899 5901
5873 5871 5870 5868 5866 5864 5862 5860 5859 5857 5856 5856 5855 5855 5855 5855 5855 5856 5857 5858 5860 5861 5862 5864 5865 5867 5869 5870 5872 5873 5875 5877 5879 5880 5882 5884 5886 5888 5890 5892 5894 5896 5899
5873 5871 5869 5867 5865 5864 5862 5860 5858 5857 5856 5855 5854 5854 5854 5854 5854 5855 5856 5857 5858 5859 5860 5862 5863 5865 5867 5868 5870 5872 5873 5875 5876 5878 5880 5882 5884 5886 5888 5890 5891 5894 5896
5872 5871 5869 5867 5865 5864 5861 5859 5858 5856 5855 5854 5853 5853 5853 5853 5853 5853 5854 5855 5856 5857 5859 5860 5862 5863 5865 5866 5868 5870 5871 5872 5874 5876 5877 5879 5881 5883 5884 5886 5888 5890 5893
5872 5871 5869 5867 5866 5864 5862 5860 5858 5856 5854 5853 5853 5853 5852 5853 5852 5852 5853 5853 5854 5855 5857 5858 5860 5861 5863 5864 5866 5867 5869 5870 5871 5873 5874 5876 5878 5880 5881 5883 5885 5887 5889
5872 5871 5869 5868 5866 5864 5862 5860 5858 5856 5854 5853 5853 5852 5852 5852 5852 5852 5852 5853 5853 5854 5855 5856 5858 5859 5860 5862 5863 5865 5866 5867 5868 5870 5871 5873 5874 5876 5878 5879 5880 5883 5885
5872 5871 5869 5868 5866 5864 5862 5860 5858 5856 5855 5854 5853 5852 5852 5851 5851 5851 5852 5852 5852 5853 5854 5855 5856 5857 5858 5859 5861 5862 5863 5864 5865 5866 5868 5869 5871 5873 5874 5875 5876 5878 5881
5872 5871 5869 5868 5866 5864 5862 5860 5859 5857 5855 5854 5853 5852 5852 5851 5851 5851 5851 5851 5851 5851 5852 5853 5854 5855 5856 5857 5858 5859 5860 5861 5861 5862 5864 5866 5867 5868 5869 5870 5871 5874 5876
5871 5870 5869 5867 5866 5864 5862 5861 5859 5857 5856 5855 5853 5852 5852 5851 5851 5850 5850 5850 5850 5850 5850 5851 5851 5852 5853 5854 5855 5856 5857 5857 5857 5859 5860 5862 5863 5864 5863 5864 5866 5868 5871
5871 5870 5868 5867 5865 5864 5862 5861 5859 5857 5856 5855 5854 5852 5851 5851 5850 5850 5849 5849 5849 5849 5849 5849 5849 5850 5851 5851 5852 5853 5854 5854 5855 5855 5857 5858 5859 5859 5859 5859 5860 5863 5866
5870 5869 5867 5866 5865 5863 5862 5860 5859 5857 5856 5854 5853 5852 5851 5850 5849 5849 5848 5848 5847 5847 5847 5847 5847 5847 5848 5849 5849 5850 5851 5852 5852 5853 5854 5854 5855 5856 5855 5855 5857 5859 5862
5869 5868 5866 5865 5864 5863 5861 5860 5858 5857 5855 5854 5853 5852 5850 5849 5848 5847 5847 5846 5846 5845 5845 5844 5844 5845 5845 5845 5846 5847 5847 5848 5849 5849 5850 5850 5851 5852 5852 5853 5853 5855 5857
5867 5866 5865 5864 5863 5861 5860 5859 5857 5855 5854 5853 5852 5851 5849 5848 5847 5846 5845 5844 5843 5843 5842 5842 5842 5842 5842 5842 5842 5843 5843 5844 5844 5845 5846 5846 5847 5848 5848 5849 5850 5851 5852
5866 5865 5864 5862 5861 5860 5858 5857 5855 5854 5853 5851 5850 5849 5848 5846 5845 5844 5843 5842 5841 5840 5840 5839 5838 5838 5838 5838 5838 5838 5839 5839 5840 5840 5841 5841 5842 5842 5843 5844 5845 5846 5847
5864 5863 5862 5860 5859 5857 5856 5855 5853 5852 5850 5849 5848 5846 5845 5844 5843 5842 5841 5839 5838 5837 5837 5836 5835 5835 5834 5834 5834 5834 5834 5834 5834 5835 5835 5836 5836 5836 5837 5838 5839 5839 5840
5861 5860 5859 5858 5856 5855 5854 5852 5851 5849 5848 5846 5845 5843 5842 5841 5840 5838 5837 5836 5835 5833 5832 5831 5831 5830 5829 5829 5828 5829 5828 5829 5829 5829 5829 5829 5830 5830 5830 5831 5831 5832 5833
5858 5857 5856 5855 5853 5852 5850 5849 5847 5846 5844 5842 5841 5839 5838 5837 5835 5834 5832 5831 5830 5829 5827 5826 5825 5824 5824 5823 5822 5822 5822 5822 5822 5822 5822 5822 5822 5822 5823 5823 5823 5824 5824
5854 5853 5852 5851 5850 5848 5846 5845 5843 5842 5840 5838 5836 5834 5833 5831 5830 5828 5827 5825 5824 5822 5821 5820 5819 5818 5817 5816 5815 5815 5815 5814 5814 5814 5814 5814 5814 5814 5814 5814 5814 5815 5816
5850 5849 5848 5847 5845 5843 5842 5840 5838 5836 5834 5832 5831 5828 5827 5825 5823 5821 5820 5818 5817 5815 5814 5813 5812 5811 5810 5809 5808 5807 5806 5806 5806 5806 5805 5805 5804 5804 5804 5805 5804 5805 5805
5846 5845 5843 5842 5840 5838 5836 5834 5832 5830 5828 5826 5824 5822 5820 5818 5816 5814 5812 5811 5809 5807 5806 5805 5804 5803 5802 5801 5799 5799 5798 5797 5796 5796 5795 5795 5794 5794 5793 5793 5793 5793 5794
5841 5839 5838 5836 5834 5832 5830 5828 5826 5824 5822 5820 5817 5815 5813 5810 5808 5806 5804 5803 5801 5799 5797 5796 5795 5793 5792 5790 5789 5788 5787 5787 5786 5785 5783 5783 5783 5782 5782 5781 5781 5781 5782
5835 5834 5832 5830 5828 5826 5824 5822 5820 5817 5815 5813 5810 5807 5805 5802 5799 5797 5796 5794 5792 5790 5787 5786 5784 5783 5781 5779 5778 5777 5775 5774 5774 5773 5771 5770 5770 5769 5769 5769 5769 5769 5769
5829 5827 5825 5823 5821 5819 5817 5814 5812 5810 5807 5805 5802 5799 5796 5793 5790 5787 5785 5783 5781 5779 5777 5775 5773 5771 5769 5767 5765 5763 5762 5761 5760 5760 5758 5756 5756 5755 5756 5756 5756 5756 5756